User: anonymous
Location: Unspecified
(0.0000°N, 0.0000°E)
Time: 19:54:39
(UTC+02:00)
Language:

Cosmos 1980 Rocket - Orbit

View from above orbital plane
View from above orbital plane
View from above satellite
View from above satellite

Ground track
Ground track

The orbit data is extracted from the following two-line orbital elements,

1 19650U 88102B   14204.12494742 -.00000153  00000-0 -53345-4 0  3364
2 19650 070.9996 083.9757 0014830 347.4331 165.2557 14.15669147325963
Epoch (UTC): 23 July 2014 02:59:55
Eccentricity: 0.0014830
inclination: 70.9996°
perigee height: 829 km
apogee height: 851 km
right ascension of ascending node: 83.9757°
argument of perigee: 347.4331°
revolutions per day: 14.15669147
mean anomaly at epoch: 165.2557°
orbit number at epoch: 32596

The dashed part of the orbit path shows where the satellite is in the earth's shadow,  

DLR